Flag for Germany Weather past 2 weeks in Lohne (Oldenburg), Lower Saxony, Germany

Now
37 °F

Fog.


Feels Like: 32 °F
Forecast: 37 / 42 °F
Wind: 7 mph from Southwest

Location: Bremen Airport

Current Time: Jan 26, 2015 at 2:17:38 AM

Latest Report: Jan 26, 2015 at 1:50 AM


Visibility: 2 mi

Pressure: 30.24 "Hg

Humidity: 93%

Dew point: 36 °F

Location of Lohne (Oldenburg)Location

Historic Weather in Lohne (Oldenburg) — Graph

°F

Lohne (Oldenburg) temperature yesterday

Maximum temperature yesterday: 41 °F (at 2:50 PM)
Minimum temperature yesterday: 25 °F (at 5:20 AM)
Average temperature yesterday: 35 °F

Past Weeks' High & Low Weather Summary

 TemperatureHumidityPressure
High50 °F (Jan 13, 8:20 AM)100% (Jan 14, 5:20 PM)30.33 "Hg (Jan 14, 5:20 PM)
Low21 °F (Jan 21, 7:20 AM)70% (Jan 11, 1:20 AM)29.36 "Hg (Jan 15, 2:20 PM)
Average36 °F89%29.89 "Hg
* Reported Jan 11 1:20 AM — Jan 26 1:20 AM, Lohne (Oldenburg), Weather by CustomWeather, © 2014

Note: Actual official high and low records may vary slightly from our data, if they occured in-between our weather recording intervals... More about our weather records

Advertising

Lohne (Oldenburg) weather history for previous 24 hours

 ConditionsComfort  
Time TempWeatherWind HumidityBarometerVisibility
1:20 AM
Jan 26
37 °FFog.7 mph93%30.24 "Hg1 mi
12:50 AM36 °FFog.6 mph100%30.24 "Hg1 mi
12:20 AM37 °FFog.5 mph93%30.27 "Hg2 mi
11:50 PM
Jan 25
37 °FFog.6 mph93%30.27 "Hg2 mi
11:20 PM37 °FFog.6 mph93%30.27 "Hg2 mi
10:20 PM37 °FLight rain. Fog.6 mph93%30.30 "Hg1 mi
9:50 PM37 °FFog.5 mph100%30.30 "Hg2 mi
9:20 PM37 °FFog.5 mph93%30.30 "Hg2 mi
8:50 PM37 °FFog.5 mph93%30.30 "Hg2 mi
8:20 PM37 °FFog.6 mph93%30.30 "Hg3 mi
7:50 PM37 °FLow clouds.6 mph93%30.30 "Hg4 mi
7:20 PM37 °FPassing clouds.5 mph93%30.30 "Hg5 mi
6:50 PM37 °FPassing clouds.6 mph93%30.30 "Hg6 mi
6:20 PM37 °FPassing clouds.6 mph93%30.30 "HgN/A
5:50 PM37 °FPassing clouds.6 mph93%30.30 "HgN/A
5:20 PM37 °FPassing clouds.7 mph93%30.30 "HgN/A
4:50 PM37 °FPartly sunny.6 mph93%30.30 "HgN/A
4:20 PM37 °FBroken clouds.7 mph93%30.30 "HgN/A
3:50 PM41 °FScattered clouds.8 mph87%30.30 "HgN/A
3:20 PM41 °FPassing clouds.8 mph87%30.30 "HgN/A
2:50 PM41 °FScattered clouds.10 mph87%30.27 "HgN/A
2:20 PM39 °FScattered clouds.8 mph93%30.27 "HgN/A
1:50 PM39 °FSprinkles. Partly sunny.12 mph93%30.30 "Hg5 mi
1:20 PM39 °FPartly sunny.9 mph93%30.30 "HgN/A
12:50 PM39 °FBroken clouds.9 mph93%30.30 "HgN/A
12:20 PM39 °FPartly sunny.9 mph93%30.30 "HgN/A
11:50 AM37 °FBroken clouds.9 mph93%30.30 "HgN/A
11:20 AM37 °FPartly sunny.7 mph93%30.30 "HgN/A
10:50 AM36 °FPartly sunny.9 mph100%30.30 "Hg6 mi
10:20 AM36 °FBroken clouds.8 mph100%30.30 "HgN/A
9:50 AM34 °FBroken clouds.6 mph100%30.30 "HgN/A
9:20 AM34 °FBroken clouds.5 mph100%30.30 "HgN/A
8:50 AM34 °FPartly sunny.6 mph100%30.30 "HgN/A
8:20 AM34 °FBroken clouds.5 mph93%30.30 "HgN/A
7:50 AM34 °FSprinkles. Passing clouds.7 mph100%30.27 "HgN/A
7:20 AM32 °FSprinkles. Passing clouds.3 mph100%30.27 "Hg2 mi
6:50 AM32 °FPassing clouds.3 mph100%30.27 "HgN/A
6:20 AM28 °FPassing clouds.1 mph100%30.27 "HgN/A
5:50 AM28 °FFog.7 mph100%30.27 "HgN/A
5:20 AM25 °FFog.6 mph100%30.27 "HgN/A
4:20 AM28 °FFog.5 mph100%30.24 "HgN/A
3:50 AM30 °FFog.7 mph100%30.24 "HgN/A
3:20 AM28 °FFog.5 mph100%30.24 "HgN/A
2:50 AM27 °FFog.5 mph100%30.24 "HgN/A
2:20 AM28 °FFog.5 mph100%30.24 "HgN/A
Weather by CustomWeather, © 2014

See weather overviewHow to use our weather pages